This is the latest recevied weather packets stored in our database for station/object JA3YAI-13. If no packets are shown the sender has not sent any weather packets the latest 10 day(s).
| Time | Temp. | Humidity | Pressure | Rain* | Wind** | Luminosity | Snow |
|---|---|---|---|---|---|---|---|
| 1777844784 | 16.67° C | 80% | 997.1 hPa | 0 mm | - | - | - |
| 1777844183 | 16.67° C | 80% | 996.8 hPa | 0 mm | - | - | - |
| 1777843585 | 16.67° C | 79% | 996.4 hPa | 0 mm | - | - | - |
| 1777842985 | 16.11° C | 80% | 996.4 hPa | 0 mm | - | - | - |
| 1777842384 | 16.11° C | 84% | 995.9 hPa | 0 mm | - | - | - |
| 1777841784 | 16.11° C | 84% | 995.9 hPa | 0 mm | - | - | - |
| 1777841185 | 16.11° C | 85% | 995.6 hPa | 0 mm | - | - | - |
| 1777840585 | 16.11° C | 85% | 996.1 hPa | 0 mm | - | - | - |
| 1777839984 | 16.11° C | 86% | 996.6 hPa | 0 mm | - | - | - |
| 1777839384 | 16.11° C | 86% | 996.5 hPa | 0 mm | - | - | - |
| 1777838783 | 16.11° C | 86% | 995.8 hPa | 0 mm | - | - | - |
| 1777838185 | 16.11° C | 87% | 995.8 hPa | 0 mm | - | - | - |
| 1777837584 | 15.56° C | 88% | 995.8 hPa | 0 mm | - | - | - |
| 1777836984 | 15.56° C | 89% | 995.6 hPa | 0 mm | - | - | - |
| 1777836384 | 15.56° C | 90% | 995.2 hPa | 0 mm | - | - | - |
| 1777835785 | 16.11° C | 89% | 995.4 hPa | 0 mm | - | - | - |
| 1777835184 | 16.11° C | 89% | 995 hPa | 0 mm | - | - | - |
| 1777834584 | 16.11° C | 88% | 995.4 hPa | 0 mm | - | - | - |
| 1777833984 | 16.11° C | 89% | 995.1 hPa | 0 mm | - | - | - |
| 1777833385 | 16.11° C | 89% | 994.9 hPa | 0 mm | - | - | - |
| 1777832785 | 16.11° C | 90% | 994.6 hPa | 0 mm | - | - | - |
| 1777832184 | 16.11° C | 93% | 994.4 hPa | 0 mm | - | - | - |
| 1777831584 | 16.11° C | 95% | 994.2 hPa | 0 mm | - | - | - |
| 1777830984 | 15.56° C | 97% | 994.4 hPa | 0 mm | - | - | - |
| 1777830385 | 16.11° C | 98% | 994.2 hPa | 1.52 mm | - | - | - |
* Rain latest hour (hover to see other rain measurements)
** Current wind speed in m/s (hover to see current wind gust speed)